Location: Park Creek Village Mobile Home Park
(38.2885°N, 122.4714°W)
Time: 22:41:00
(UTC+00:00)

NOSS 3-2 (A) - Pass Details

Date: 14 December 2019
Orbit: 814 x 1394 km, 63.4° (Epoch: 18 January)

Event Time Altitude Azimuth Distance (km) Brightness Sun altitude
Rises 13:17:53 0° 197° (SSW) 3,336 6.3 -22.9°
Reaches altitude 10° 13:20:16 10° 192° (SSW) 2,434 5.6 -22.5°
Maximum altitude 13:25:40 53° 116° (ESE) 1,070 4.0 -21.5°
Drops below altitude 10° 13:31:41 10° 41° (NE) 2,705 6.2 -20.3°
Sets 13:34:28 0° 37° (NE) 3,742 6.9 -19.8°
